パンスターズ彗星

C/2026 L1 ( PanSTARRS )

English version
Home page
Updated on June 12, 2026

---------------------------------------------------------------------

・ プロフィール

発見日 2026年6月8日
発見光度 20.0等
発見者 Pan-STARRS 1 telescope (Haleakala)

・ 軌道要素

Epoch 2026 June 9.0 TT = JDT 2461200.5                                          
T 2027 Apr. 11.28698 TT                                 Pike                    
q   4.8801026            (2000.0)            P               Q                  
z  +0.0013240      Peri.  200.57535     +0.71136763     +0.04688962             
 +/-0.0002437      Node   130.50476     -0.44322983     +0.80427285             
e   0.9935388      Incl.   67.26108     -0.54543874     -0.59240742             
From 38 observations 2026 Apr. 8-June 9, mean residual 0".3.                    

・ 光度変化

        m1 = 8.5 + 5 logΔ + 10.0 log r

---------------------------------------------------------------------

軌道要素はM.P.E.C. 2026-L49に掲載されたものです。
光度グラフはComet for Windowsで作成したものです。

---------------------------------------------------------------------

Copyright(C) Seiichi Yoshida (comet@aerith.net). All rights reserved.